Stations météo

réclame
Mon MeteoGroup
Santander/Parayas, Espagne (8021): Température de l'air & dewpoint: 16.10.2017 01:00:00 - 22.10.2017 01:00:00 (CEST)Santander/Parayas, Espagne (8021): Vitesse du vent: 16.10.2017 01:00:00 - 22.10.2017 01:00:00 (CEST)Santander/Parayas, Espagne (8021): Direction du vent: 16.10.2017 01:00:00 - 22.10.2017 01:00:00 (CEST)Santander/Parayas, Espagne (8021): reduced air pressure: 16.10.2017 01:00:00 - 22.10.2017 01:00:00 (CEST)Santander/Parayas, Espagne (8021): visibility: 16.10.2017 01:00:00 - 22.10.2017 01:00:00 (CEST)
Date & Time tt [°C] td [°C] ff [km/h] ff [knt] dd ppp [hPa] vv [km]
22.10.2017 01:00:00 - - - - - - -
22.10.2017 00:00:00 14,8 11,0 29 16 WNW 1029,1 -
21.10.2017 23:00:00 16,0 11,4 22 12 WNW 1028,3 25
21.10.2017 22:00:00 16,8 8,2 22 12 W 1028,0 -
21.10.2017 21:00:00 16,9 10,0 21 11 W 1027,7 -
21.10.2017 20:00:00 17,2 8,9 24 13 WNW 1027,3 30
21.10.2017 19:00:00 17,0 10,7 21 11 W 1026,7 -
21.10.2017 18:00:00 18,1 9,3 24 13 W 1026,5 -
21.10.2017 17:00:00 18,3 10,1 22 12 WNW 1026,0 30
21.10.2017 16:00:00 19,5 11,2 24 13 WNW 1025,5 -
21.10.2017 15:00:00 18,8 11,8 26 14 WNW 1025,2 -
21.10.2017 14:00:00 18,5 12,6 22 12 WNW 1025,0 25
21.10.2017 13:00:00 19,2 10,4 22 12 WNW 1024,8 -
21.10.2017 12:00:00 19,4 10,1 22 12 W 1024,5 -
21.10.2017 11:00:00 17,8 12,5 9 5 SSW 1024,2 20
21.10.2017 10:00:00 16,3 12,5 13 7 SSW 1023,7 -
21.10.2017 09:00:00 15,6 14,1 15 8 SSW 1023,0 -
21.10.2017 08:00:00 15,6 14,8 9 5 SSW 1022,6 10
21.10.2017 07:00:00 16,1 15,6 9 5 SW 1022,0 -
21.10.2017 06:00:00 17,2 14,0 22 12 W 1020,9 -
21.10.2017 05:00:00 17,0 15,0 24 13 W 1020,4 -
21.10.2017 04:00:00 17,7 15,1 16 9 W 1019,9 -
21.10.2017 03:00:00 18,4 15,6 29 16 WNW 1019,2 -
21.10.2017 02:00:00 18,7 13,1 13 7 W 1016,7 -
21.10.2017 01:00:00 22,4 14,3 18 10 SSW 1014,7 -
21.10.2017 00:00:00 23,3 13,2 22 12 S 1014,2 -
20.10.2017 23:00:00 23,5 11,5 22 12 SSW 1013,7 30
20.10.2017 22:00:00 23,2 11,8 18 10 SSW 1013,5 -
20.10.2017 21:00:00 18,4 14,6 4 2 E 1013,8 -
20.10.2017 20:00:00 19,0 14,9 11 6 ENE 1014,0 30
20.10.2017 19:00:00 20,8 15,7 16 9 ENE 1014,2 -
20.10.2017 18:00:00 21,7 16,3 13 7 ENE 1014,7 -
20.10.2017 17:00:00 22,0 16,2 15 8 NE 1015,2 30
20.10.2017 16:00:00 22,2 15,5 18 10 NE 1015,6 -
20.10.2017 15:00:00 22,0 15,5 16 9 NE 1015,8 -
20.10.2017 14:00:00 21,9 15,6 15 8 NE 1016,4 25
20.10.2017 13:00:00 21,1 16,2 13 7 NE 1016,8 -
20.10.2017 12:00:00 20,1 14,8 8 4 ENE 1016,9 -
20.10.2017 11:00:00 18,5 15,3 5 3 ENE 1017,1 20
20.10.2017 10:00:00 15,5 14,4 0 0 N 1016,7 -
20.10.2017 09:00:00 15,1 14,1 5 3 SSE 1016,4 -
20.10.2017 08:00:00 16,0 15,5 4 2 SW 1016,0 15
20.10.2017 07:00:00 16,0 15,5 4 2 W 1015,8 -
20.10.2017 06:00:00 16,5 15,9 4 2 WNW 1015,1 -
20.10.2017 05:00:00 16,5 12,8 4 2 WSW 1015,2 -
20.10.2017 04:00:00 16,6 12,9 4 2 SW 1014,9 -
20.10.2017 03:00:00 16,3 13,6 8 4 SSW 1014,6 -
20.10.2017 02:00:00 16,6 13,5 8 4 SW 1014,7 -
20.10.2017 01:00:00 17,4 14,1 8 4 SW 1014,5 -
20.10.2017 00:00:00 17,6 13,8 11 6 W 1013,9 -
19.10.2017 23:00:00 17,3 11,8 0 0 N 1012,8 20
19.10.2017 22:00:00 15,5 14,7 2 1 NW 1011,7 -
19.10.2017 21:00:00 15,9 13,3 0 0 N 1010,9 -
19.10.2017 20:00:00 17,4 13,9 0 0 N 1010,7 25
19.10.2017 19:00:00 18,3 14,8 5 3 E 1010,3 -
19.10.2017 18:00:00 19,1 13,7 11 6 NE 1010,2 -
19.10.2017 17:00:00 19,7 13,0 11 6 ENE 1010,0 25
19.10.2017 16:00:00 19,5 11,5 11 6 ENE 1010,0 -
19.10.2017 15:00:00 19,4 12,8 8 4 NE 1010,2 -
19.10.2017 14:00:00 19,7 13,0 11 6 ENE 1010,5 25
19.10.2017 13:00:00 21,0 11,2 4 2 WSW 1011,5 -
19.10.2017 12:00:00 19,8 10,4 9 5 WSW 1011,7 -
19.10.2017 11:00:00 17,7 11,0 8 4 S 1011,6 30
19.10.2017 10:00:00 14,8 10,3 11 6 SW 1011,8 -
19.10.2017 09:00:00 12,7 9,7 8 4 SW 1011,2 -
19.10.2017 08:00:00 12,0 9,3 9 5 SSW 1011,0 25
19.10.2017 07:00:00 12,9 9,3 8 4 SSW 1011,1 -
19.10.2017 06:00:00 14,1 10,1 13 7 SSW 1011,2 -
19.10.2017 05:00:00 14,5 10,3 9 5 SSW 1011,2 -
19.10.2017 04:00:00 14,4 10,5 13 7 SSW 1011,2 -
19.10.2017 03:00:00 14,1 10,6 11 6 SW 1011,2 -
19.10.2017 02:00:00 12,8 10,0 8 4 SSW 1011,3 -
19.10.2017 01:00:00 13,1 10,5 11 6 SSW 1011,4 -
19.10.2017 00:00:00 13,5 10,5 11 6 SSW 1011,6 -
18.10.2017 23:00:00 13,7 11,2 9 5 SSW 1011,6 25
18.10.2017 22:00:00 14,1 11,1 13 7 SW 1011,4 -
18.10.2017 21:00:00 14,1 11,4 16 9 SSW 1011,1 -
18.10.2017 20:00:00 14,7 12,6 18 10 SSW 1010,8 10
18.10.2017 19:00:00 15,6 13,1 13 7 WSW 1010,3 -
18.10.2017 18:00:00 16,4 13,5 16 9 W 1010,0 -
18.10.2017 17:00:00 15,6 13,6 18 10 W 1010,0 20
18.10.2017 16:00:00 16,8 14,6 16 9 W 1009,6 -
18.10.2017 15:00:00 16,8 14,9 9 5 WSW 1009,7 -
18.10.2017 14:00:00 17,3 14,0 15 8 W 1010,2 10
18.10.2017 13:00:00 17,3 11,7 0 0 N 1010,1 -
18.10.2017 12:00:00 - - - - - - -
18.10.2017 11:00:00 18,0 10,0 11 6 S 1009,3 18
18.10.2017 10:00:00 18,3 9,4 21 11 SSW 1009,4 -
18.10.2017 09:00:00 18,0 8,8 22 12 SSW 1009,3 -
18.10.2017 08:00:00 18,0 8,5 26 14 S 1009,5 30
18.10.2017 07:00:00 18,3 8,7 28 15 SSW 1009,6 -
18.10.2017 06:00:00 18,1 9,2 11 6 SSW 1010,3 -
18.10.2017 05:00:00 16,1 11,7 15 8 S 1010,8 -
18.10.2017 04:00:00 14,2 14,2 0 0 N 1011,8 -
18.10.2017 03:00:00 14,1 14,0 0 0 N 1012,6 -
18.10.2017 02:00:00 15,8 15,0 4 2 SE 1013,1 -
18.10.2017 01:00:00 17,1 16,3 0 0 N 1013,7 -
18.10.2017 00:00:00 17,4 16,1 0 0 N 1014,2 -
17.10.2017 23:00:00 17,5 15,7 0 0 N 1014,9 8
17.10.2017 22:00:00 17,7 15,5 0 0 N 1014,7 -
17.10.2017 21:00:00 17,6 15,4 0 0 N 1015,0 -
17.10.2017 20:00:00 17,9 15,3 4 2 W 1014,9 12
17.10.2017 19:00:00 18,1 15,4 8 4 WNW 1014,6 -
17.10.2017 18:00:00 18,6 15,5 9 5 WNW 1014,9 -
17.10.2017 17:00:00 19,4 17,4 16 9 W 1014,8 6
17.10.2017 16:00:00 19,5 17,6 15 8 W 1014,8 -
17.10.2017 15:00:00 19,5 17,8 16 9 W 1014,7 -
17.10.2017 14:00:00 23,6 12,2 15 8 SSE 1014,1 25
17.10.2017 13:00:00 23,7 12,0 16 9 S 1014,7 -
17.10.2017 12:00:00 22,6 12,4 13 7 SSW 1015,3 -
17.10.2017 11:00:00 22,5 11,9 15 8 S 1015,9 20
17.10.2017 10:00:00 22,2 12,2 18 10 SSW 1015,5 -
17.10.2017 09:00:00 18,2 14,3 0 0 N 1015,5 -
17.10.2017 08:00:00 15,1 14,4 9 5 SSW 1015,7 30
17.10.2017 07:00:00 13,6 13,6 0 0 N 1015,8 -
17.10.2017 06:00:00 14,2 14,2 0 0 N 1016,2 -
17.10.2017 05:00:00 14,1 13,9 0 0 N 1016,9 -
17.10.2017 04:00:00 15,3 14,8 4 2 E 1017,9 -
17.10.2017 03:00:00 16,5 16,2 9 5 ENE 1018,6 -
17.10.2017 02:00:00 16,3 15,7 8 4 ESE 1019,7 -
17.10.2017 01:00:00 18,2 16,7 15 8 ENE 1020,4 -
17.10.2017 00:00:00 18,4 16,8 11 6 ENE 1021,4 -
16.10.2017 23:00:00 18,2 17,2 4 2 ESE 1022,2 9
16.10.2017 22:00:00 18,2 17,0 11 6 ESE 1022,7 -
16.10.2017 21:00:00 18,5 16,8 13 7 E 1023,3 -
16.10.2017 20:00:00 19,2 16,3 0 0 N 1023,6 9
16.10.2017 19:00:00 19,8 16,2 8 4 N 1023,3 -
16.10.2017 18:00:00 19,8 16,1 5 3 NW 1023,2 -
16.10.2017 17:00:00 20,2 16,4 9 5 WNW 1023,1 10
16.10.2017 16:00:00 21,0 17,3 9 5 WNW 1022,8 -
16.10.2017 15:00:00 21,3 17,2 11 6 NW 1022,9 -
16.10.2017 14:00:00 22,2 17,0 15 8 W 1023,2 10
16.10.2017 13:00:00 21,9 17,5 16 9 W 1023,0 -
16.10.2017 12:00:00 21,7 17,7 22 12 WNW 1022,7 -
16.10.2017 11:00:00 25,6 11,9 34 18 SW 1020,7 20
16.10.2017 10:00:00 24,9 11,0 29 16 S 1018,9 -
16.10.2017 09:00:00 24,1 11,2 29 16 SSW 1018,1 -
16.10.2017 08:00:00 24,5 11,2 31 17 SSW 1017,5 30
16.10.2017 07:00:00 24,9 10,7 24 13 SSW 1016,9 -
16.10.2017 06:00:00 25,7 10,6 35 19 SSW 1016,2 -
16.10.2017 05:00:00 25,8 10,4 16 9 SSW 1016,1 -
16.10.2017 04:00:00 26,3 10,6 16 9 S 1016,4 -
16.10.2017 03:00:00 25,1 11,7 15 8 S 1016,9 -
16.10.2017 02:00:00 23,6 12,3 9 5 S 1017,2 -
16.10.2017 01:00:00 24,8 13,4 13 7 SSW 1017,6 -

tt = Température de l'air
td = dewpoint
ff = Vitesse du vent
dd = Direction du vent
ppp = reduced air pressure
vv = visibility

stations d'obs. à proximité